Home   Weather   Washington, D.C.   Past weeks
Flag for USA

Past Weather in Washington, D.C., District of Columbia, USA — Yesterday and Last 2 Weeks

Now
83 °F

Passing clouds.


Feels Like: 89 °F
Forecast: 98 / 78 °F
Wind: 5 mph from Southwest

Location: Reagan National Airport

Current Time: Jul 20, 2019 at 4:18:45 am

Latest Report: Jul 20, 2019 at 2:52 am


Visibility: 10 mi

Pressure: 29.91 "Hg

Humidity: 72%

Dew Point: 73 °F

Location of Washington, D.C.Location

Past Weather in Washington, D.C. — Graph

°F

Washington, D.C. Temperature Yesterday

Maximum temperature yesterday: 95 °F (at 1:52 pm)
Minimum temperature yesterday: 79 °F (at 4:52 am)
Average temperature yesterday: 88 °F

High & Low Weather Summary for the Past Weeks

 TemperatureHumidityPressure
High95 °F (Jul 19, 1:52 pm)97% (Jul 8, 9:28 am)30.12 "Hg (Jul 8, 9:28 am)
Low68 °F (Jul 9, 4:52 am)36% (Jul 13, 3:52 pm)29.78 "Hg (Jul 11, 5:52 pm)
Average82 °F70%29.96 "Hg
* Reported Jul 5 2:10 am — Jul 20 2:52 am, Washington, D.C.. Weather by CustomWeather, © 2019

Note: Actual official high and low records may vary slightly from our data, if they occured in-between our weather recording intervals... More about our weather records

Advertising

Washington, D.C. Weather History for the Previous 24 Hours

Scroll right to see more
 ConditionsComfort  
Time TempWeatherWind HumidityBarometerVisibility
2:52 am
Sat, Jul 20
83 °FPassing clouds.5 mph72%29.91 "Hg10 mi
1:52 am83 °FPassing clouds.6 mph74%29.90 "Hg10 mi
12:52 am85 °FPassing clouds.7 mph77%29.90 "Hg10 mi
11:52 pm
Fri, Jul 19
86 °FPassing clouds.7 mph65%29.90 "Hg10 mi
10:52 pm87 °FPassing clouds.No wind72%29.93 "Hg10 mi
9:52 pm89 °FPassing clouds.5 mph57%29.92 "Hg10 mi
8:52 pm91 °FPassing clouds.7 mph52%29.91 "Hg10 mi
7:52 pm92 °FPassing clouds.9 mph52%29.89 "Hg10 mi
6:52 pm94 °FPassing clouds.12 mph49%29.88 "Hg10 mi
5:52 pm95 °FPassing clouds.13 mph49%29.88 "Hg10 mi
4:52 pm95 °FScattered clouds.14 mph47%29.90 "Hg10 mi
3:52 pm93 °FScattered clouds.13 mph56%29.91 "Hg10 mi
2:52 pm93 °FScattered clouds.13 mph58%29.93 "Hg10 mi
1:52 pm95 °FScattered clouds.5 mph51%29.94 "Hg10 mi
12:52 pm93 °FPassing clouds.12 mph54%29.96 "Hg10 mi
11:52 am92 °FPassing clouds.9 mph58%29.96 "Hg10 mi
10:52 am90 °FPassing clouds.10 mph59%29.97 "Hg10 mi
9:52 am89 °FSunny.9 mph57%29.97 "Hg10 mi
8:52 am87 °FPassing clouds.10 mph61%29.96 "Hg10 mi
7:52 am84 °FPassing clouds.6 mph70%29.94 "Hg10 mi
6:52 am81 °FPassing clouds.7 mph72%29.93 "Hg10 mi
5:52 am80 °FPassing clouds.No wind79%29.92 "Hg10 mi
4:52 am79 °FClear.No wind88%29.91 "Hg10 mi
Weather by CustomWeather, © 2019

See weather overview